* Astronomy

Members Login
Post Info TOPIC: Asteroid 2010 LM14


L

Posts: 131433
Date:
Asteroid 2010 LM14
Permalink  
 


Orbital elements:
2010 LM14 Earth MOID = 0.3246 AU
Epoch 2010 July 23.0 TT = JDT 2455400.5 MPC
M 335.93268 (2000.0) P Q
n 0.77284050 Peri. 185.27492 +0.99818408 -0.05711421
a 1.1760058 Node 177.71891 +0.05511843 +0.99421276
e 0.4234093 Incl. 28.75025 -0.02430026 -0.09098872
P 1.28 H 21.5 G 0.15 U 9

MPEC 2010 - L29


__________________
Page 1 of 1  sorted by
Quick Reply

Please log in to post quick replies.



Create your own FREE Forum
Report Abuse
Powered by ActiveBoard